Showing default

CHINASAT 18, 44493

Orbit data source: Space-Track

CHINASAT 18, 44493 is a payload satellite owned by PLA SSF (CN) in HEO that was launched on Mon, 19 Aug 2019 UTC via a CHANG ZHENG 3B launch vehicle from the Xichang Space Center, China (XSC). Payload-class satellites include a variety of spacecraft equipped with specific instruments for various scientific and technological missions. These include communications satellites like Starlink; space stations such as the ISS; scientific satellites like the Hubble; Earth observation satellites from companies like Planet Labs, Umbra, and HawkEye 360; GPS; miniature CubeSats for education and research; and military/defense satellites.

Loading next visibility...
Identifier
44493, 2019-053A
Orbit
HEO
Last TLE update
19 hours ago
Origin
Manufacturer
CAST
Mission
Non-operational Civil Communications
Bus & Motor
DFH-4, DFH-4 LAE
Mass
~5,250 kg wet, ~2,500 kg dry
Launch date (UTC)
2019-08-19 (6 years ago)
Launch vehicle
CHANG ZHENG 3B
Launch site
Xichang Space Center, China (XSC)
Object type
Payload
Rocket body
Debris
Shape & HBR
Box + 2 Pan, 30 m
Radar Cross Section
34.063 m², Large (>1 m²)

Expand to show TLE details & history

TLE from 19 hours ago
0 CHINASAT 18
1 44493U 19053A   25186.15846579  .00012510  83645-6  28546-3 0  9998
2 44493  28.4086 249.7488 6501631 324.0480   6.2195  3.38447373 57387
Epoch: 2025-07-05T03:48Z
TLE epoch observation values (Epoch: 2025-07-05T03:48:11.444Z)
Latitude
0.00011°
Longitude
-90.67247°
Altitude
715.559 km
Speed
9.545 km/s
True Right ascension
16h 39m 06s
True Declination
0° 00' 00"
Sunlit
Object was in full shadow at epoch
Visualization orbit readout
Latitude
9.01439°
Longitude
71.81573°
Altitude
22,479.077 km
Speed
2.521 km/s
Apparent Right ascension
02h 52m 40s
Apparent Declination
0° 50' 45"
Sunlit
Object is in daylight
Visualization observer readout
Local Sidereal Time
10:25:10
Azimuth
285.979° WNW
Elevation
-16.962°
Doppler factor
1
Orbital elements
Apogee altitude
24,549.749 km
Perigee altitude
178.618 km
Semi-major axis
18,742.321 km
Eccentricity
0.65016
Inclination
28.4086°
RAAN
249.7488°
Arg. of periapsis
324.048°
True anomaly
Unknown
Mean anomaly
6.2195°
Eccentric anomaly
Unknown
Mean motion
0.84588 °/min
Orbital period
425.59 mins
BSTAR
0.00028546
Loading maneuver chart data...
Loading SW <> Apogee altitude chart data...
Loading historical data...
Loading historical data...
Loading historical data...
Loading historical data...
Loading historical data...
Loading historical data...
Loading historical data...
Other satellites on launch #53 in the year 2019 (2019-08-19 UTC)

CHINASAT 18 Visibility forecast

Observer location: undefined°, undefined°

Span
Click to sort rows by Start time (UTC) header in descending order
Start Az.
Max El. time (UTC)
Max El. Az.
Max El.
End time (UTC)
End Az.
335 mins2025-07-06 08:18:59.033Z227.929° WSW2025-07-06 08:36:59.033Z151.496° SSE41.349°2025-07-06 13:53:59.033Z122.985° SE
232 mins2025-07-06 16:16:59.033Z283.38° WNW2025-07-06 17:34:59.033Z270.06° WNW21.495°2025-07-06 20:08:59.033Z256.645° W
|